Погода в Лондоко-Заводе

Россия / Еврейская автономная область     49°00′42″N   131°56′12″E
темп.,
°C
ветер,
м/с
пор.,
м/с
влажн.,
%
обл.,
%
осадки,
мм/ч
давл.,
гПа
погр.,
м
11 мая, вт
вт1101:00+5зюз1196100 0.1 101317
04:00+5ююв0097100 0.3 101419
07:00+5вюв2398100 0.8 1016271
10:00+4ююв1292100 0.9 1018366
13:00+6ююв1187100 0.1 1018580
16:00+8ююв117799 0.1 1017776
19:00+9ююв227285 0.0 1017797
22:00+5юв218830 0.0 101828
12 мая, ср
ср1201:00+3в119637 0.0 101813
04:00+4в2494100 0.0 1016169
07:00+5в3892100 0.0 1015378
10:00+8в51076100 0.0 1012699
13:00+8вюв51185100 0.4 10101110
16:00+7вюв41096100 4.9 1009777
19:00+7вюв3997100 1.0 1007705
22:00+7вюв3899100 2.1 1007616
13 мая, чт
чт1301:00+7в41198100 1.2 1005643
04:00+7вюв31098100 1.9 1004837
07:00+7юв2898100 0.4 1004668
10:00+7ююв149895 1.1 1005344
13:00+11юз3678100 0.8 1005853
16:00+13з477389 2.2 10051133
19:00+12з388238 1.1 1006965
22:00+7з119389 1.3 100810
14 мая, пт
пт1401:00+6сз11955 0.0 100910
04:00+5с11950 0.0 100910
07:00+7св11904 0.0 101035
10:00+15юв126389 0.0 1008491
13:00+19ююв3443100 0.0 10071242
16:00+21ююв4931100 0.0 10042996
19:00+17юв51246100 0.0 1001739
22:00+13ю3984100 1.4 1001479
15 мая, сб
сб1501:00+9з2394100 2.3 1001180
04:00+7з21974 2.4 100225
07:00+7з13910 0.0 1002134
10:00+12зюз37615 0.0 10011017
13:00+16зюз6939100 0.0 9992544
16:00+13з7114662 0.1 9992111
19:00+10зсз5116536 0.4 10001456
22:00+6зсз5118381 0.5 1002942